Auburn, IN

4:18 PM EDT on October 16, 2019 (GMT -0400)
Auburn

Weather History for KGWB - May, 2019

Change the Weather History Date:

Saturday, May 4, 2019

  Actual Average (WUND) Record (WUND)
Temperature  
Mean Temperature 53 °F -  
Max Temperature 60 °F - - (-1)
Min Temperature 46 °F - - (-1)
Degree Days  
Heating Degree Days 12    
Growing Degree Days 3 (Base 50)    
Moisture  
Dew Point 46 °F    
Average Humidity 80    
Maximum Humidity 94    
Minimum Humidity 55    
Precipitation  
Precipitation 0.00 in - - ()
Sea Level Pressure  
Sea Level Pressure 29.97 in    
Wind  
Wind Speed 4 mph (NE)    
Max Wind Speed 8 mph    
Max Gust Speed -    
Visibility 10 miles    
Events Rain    
Averages and records for this station are not official NWS values.
T = Trace of Precipitation, MM = Missing Value Source: NWS Daily Summary

Daily Weather History Graph

Daily Weather History Graph

Search for Another Location

Airport or City:

Astronomy

May. 04, 2019 Rise Set
Actual Time 6:34 AM EDT 8:40 PM EDT
Civil Twilight 6:03 AM EDT 9:11 PM EDT
Nautical Twilight 5:26 AM EDT 9:48 PM EDT
Astronomical Twilight 4:46 AM EDT 10:29 PM EDT
Moon 6:46 AM EDT (5/4) 8:28 PM EDT (5/4)
Length of Visible Light 15h 07m
Length of Day
14h 06m
Waning Crescent, 0% of the Moon is Illuminated
May 4
Waning Crescent
May 4
New
May 11
First Quarter
May 18
Full
May 26
Last Quarter

Hourly Weather History & Observations

Time (EDT) Temp. Dew Point Humidity Pressure Visibility Wind Dir Wind Speed Gust Speed Precip Events Conditions
12:15 AM 50.0 °F 48.2 °F 94% 30.03 in 7.0 mi ENE 6.9 mph - N/A   Overcast
12:35 AM 50.0 °F 48.2 °F 94% 30.02 in 7.0 mi East 4.6 mph - N/A   Overcast
12:55 AM 50.0 °F 48.2 °F 94% 30.01 in 10.0 mi NE 3.5 mph - N/A   Overcast
1:15 AM 50.0 °F 48.2 °F 94% 30.01 in 10.0 mi ENE 5.8 mph - N/A   Overcast
1:35 AM 50.0 °F 46.4 °F 87% 30.00 in 10.0 mi East 5.8 mph - N/A   Overcast
1:55 AM 50.0 °F 46.4 °F 87% 29.99 in 7.0 mi East 4.6 mph - N/A   Overcast
2:15 AM 50.0 °F 46.4 °F 87% 29.99 in 7.0 mi East 3.5 mph - N/A   Overcast
2:35 AM 50.0 °F 46.4 °F 87% 29.98 in 10.0 mi East 4.6 mph - N/A   Overcast
2:55 AM 50.0 °F 46.4 °F 87% 29.98 in 10.0 mi East 4.6 mph - N/A   Overcast
3:15 AM 50.0 °F 46.4 °F 87% 29.98 in 10.0 mi ESE 3.5 mph - N/A   Overcast
3:35 AM 50.0 °F 46.4 °F 87% 29.96 in 10.0 mi ESE 3.5 mph - N/A   Overcast
3:55 AM 50.0 °F 46.4 °F 87% 29.98 in 10.0 mi Calm Calm - N/A   Overcast
4:15 AM 50.0 °F 46.4 °F 87% 29.97 in 7.0 mi Calm Calm - N/A   Overcast
4:35 AM 48.2 °F 46.4 °F 93% 29.98 in 7.0 mi Calm Calm - N/A   Overcast
4:55 AM 50.0 °F 46.4 °F 87% 29.99 in 10.0 mi North 3.5 mph - N/A   Overcast
5:15 AM 50.0 °F 46.4 °F 87% 29.99 in 10.0 mi North 4.6 mph - N/A   Overcast
5:35 AM 48.2 °F 46.4 °F 93% 29.99 in 10.0 mi NNE 4.6 mph - N/A   Overcast
5:55 AM 48.2 °F 46.4 °F 93% 29.99 in 10.0 mi NE 4.6 mph - N/A   Overcast
6:15 AM 48.2 °F 46.4 °F 93% 30.00 in 7.0 mi Calm Calm - N/A   Overcast
6:35 AM 48.2 °F 46.4 °F 93% 30.00 in 10.0 mi Calm Calm - N/A   Overcast
6:55 AM 48.2 °F 46.4 °F 93% 30.00 in 7.0 mi Calm Calm - N/A   Overcast
7:15 AM 50.0 °F 46.4 °F 87% 30.00 in 10.0 mi Calm Calm - N/A   Overcast
7:35 AM 50.0 °F 46.4 °F 87% 30.01 in 10.0 mi Calm Calm - N/A   Overcast
7:55 AM 50.0 °F 46.4 °F 87% 30.01 in 10.0 mi North 4.6 mph - N/A   Overcast
8:15 AM 50.0 °F 46.4 °F 87% 30.02 in 10.0 mi NNW 4.6 mph - N/A   Overcast
8:35 AM 50.0 °F 46.4 °F 87% 30.02 in 10.0 mi North 4.6 mph - N/A   Mostly Cloudy
8:55 AM 50.0 °F 46.4 °F 87% 30.01 in 10.0 mi North 5.8 mph - N/A   Mostly Cloudy
9:15 AM 50.0 °F 46.4 °F 87% 30.01 in 10.0 mi North 5.8 mph - N/A   Mostly Cloudy
9:35 AM 50.0 °F 46.4 °F 87% 30.01 in 10.0 mi North 6.9 mph - N/A   Light Drizzle
9:55 AM 51.8 °F 46.4 °F 82% 30.01 in 10.0 mi North 4.6 mph - N/A   Mostly Cloudy
10:15 AM 51.8 °F 46.4 °F 82% 30.01 in 10.0 mi North 6.9 mph - N/A   Mostly Cloudy
10:35 AM 51.8 °F 46.4 °F 82% 30.02 in 10.0 mi NNW 8.1 mph - N/A   Overcast
10:55 AM 51.8 °F 46.4 °F 82% 30.00 in 10.0 mi North 5.8 mph - N/A Rain Light Rain
11:15 AM 51.8 °F 48.2 °F 88% 30.00 in 7.0 mi NNW 8.1 mph - N/A Rain Light Rain
11:35 AM 51.8 °F 48.2 °F 88% 30.01 in 10.0 mi NNW 5.8 mph - N/A   Light Drizzle
11:55 AM 51.8 °F 50.0 °F 94% 30.00 in 10.0 mi North 8.1 mph - N/A   Scattered Clouds
12:15 PM 51.8 °F 46.4 °F 82% 29.99 in 10.0 mi NNE 4.6 mph - N/A   Mostly Cloudy
12:35 PM 53.6 °F 46.4 °F 77% 30.00 in 10.0 mi North 6.9 mph - N/A   Mostly Cloudy
12:55 PM 53.6 °F 46.4 °F 77% 30.00 in 10.0 mi NE 5.8 mph - N/A   Scattered Clouds
1:15 PM 53.6 °F 46.4 °F 77% 30.00 in 10.0 mi NE 4.6 mph - N/A   Scattered Clouds
1:55 PM 55.4 °F 46.4 °F 72% 29.98 in 10.0 mi NE 6.9 mph - N/A   Mostly Cloudy
2:15 PM 55.4 °F 46.4 °F 72% 29.97 in 10.0 mi NNE 8.1 mph - N/A   Scattered Clouds
2:35 PM 55.4 °F 44.6 °F 67% 29.97 in 10.0 mi North 5.8 mph - N/A   Clear
2:55 PM 55.4 °F 44.6 °F 67% 29.97 in 10.0 mi NE 3.5 mph - N/A   Clear
3:15 PM 57.2 °F 44.6 °F 63% 29.96 in 10.0 mi ENE 5.8 mph - N/A   Clear
3:35 PM 57.2 °F 44.6 °F 63% 29.96 in 10.0 mi NE 4.6 mph - N/A   Clear
3:55 PM 59.0 °F 44.6 °F 59% 29.95 in 10.0 mi ENE 6.9 mph - N/A   Clear
4:15 PM 59.0 °F 44.6 °F 59% 29.95 in 10.0 mi NE 6.9 mph - N/A   Clear
4:35 PM 59.0 °F 44.6 °F 59% 29.94 in 10.0 mi ENE 4.6 mph - N/A   Clear
4:55 PM 60.8 °F 44.6 °F 55% 29.93 in 10.0 mi East 4.6 mph - N/A   Clear
5:15 PM 60.8 °F 44.6 °F 55% 29.93 in 10.0 mi East 5.8 mph - N/A   Clear
5:35 PM 59.0 °F 44.6 °F 59% 29.93 in 10.0 mi East 4.6 mph - N/A   Clear
5:55 PM 59.0 °F 44.6 °F 59% 29.93 in 10.0 mi East 5.8 mph - N/A   Clear
6:15 PM 59.0 °F 44.6 °F 59% 29.92 in 10.0 mi East 4.6 mph - N/A   Clear
6:35 PM 59.0 °F 44.6 °F 59% 29.92 in 10.0 mi ESE 4.6 mph - N/A   Clear
6:55 PM 59.0 °F 44.6 °F 59% 29.92 in 10.0 mi Calm Calm - N/A   Clear
7:15 PM 57.2 °F 46.4 °F 67% 29.92 in 10.0 mi Calm Calm - N/A   Clear
7:35 PM 55.4 °F 44.6 °F 67% 29.92 in 10.0 mi ESE 3.5 mph - N/A   Clear
7:55 PM 55.4 °F 44.6 °F 67% 29.92 in 10.0 mi Calm Calm - N/A   Clear
8:15 PM 55.4 °F 44.6 °F 67% 29.91 in 10.0 mi Calm Calm - N/A   Clear
8:35 PM 53.6 °F 44.6 °F 72% 29.91 in 10.0 mi Calm Calm - N/A   Clear
8:55 PM 53.6 °F 46.4 °F 77% 29.91 in 10.0 mi Calm Calm - N/A   Clear
9:15 PM 51.8 °F 46.4 °F 82% 29.91 in 10.0 mi Calm Calm - N/A   Clear
9:35 PM 51.8 °F 46.4 °F 82% 29.91 in 10.0 mi Calm Calm - N/A   Clear
9:55 PM 50.0 °F 46.4 °F 87% 29.91 in 10.0 mi Calm Calm - N/A   Clear
10:15 PM 50.0 °F 46.4 °F 87% 29.91 in 10.0 mi Calm Calm - N/A   Clear
10:35 PM 50.0 °F 46.4 °F 87% 29.92 in 10.0 mi Calm Calm - N/A   Clear
10:55 PM 48.2 °F 46.4 °F 93% 29.92 in 10.0 mi Calm Calm - N/A   Clear
11:15 PM 46.4 °F 44.6 °F 93% 29.92 in 10.0 mi Calm Calm - N/A   Clear
11:35 PM 46.4 °F 44.6 °F 93% 29.92 in 10.0 mi Calm Calm - N/A   Clear
11:55 PM 46.4 °F 44.6 °F 93% 29.92 in 10.0 mi Calm Calm - N/A   Clear